OK,28,68,829,28,2014-10-01T01:40:00,0,28072599,190555
OK,28,68,829,28,2014-10-01T01:45:00,0,28073046,190555
OK,24,80,829,24,2014-10-01T01:50:00,2,28073495,190555
OK,24,80,829,24,2014-10-01T01:55:00,2,28073813,190555
OK,32,60,829,32,2014-10-01T02:00:00,0,28074261,190555
OK,32,60,829,32,2014-10-01T02:05:00,0,28074704,190555
OK,32,60,829,32,2014-10-01T02:10:00,0,28075150,190555
OK,32,60,829,32,2014-10-01T02:20:00,0,28075599,190555
OK,32,60,829,32,2014-10-01T02:25:00,0,28076431,190555
OK,32,60,829,32,2014-10-01T02:30:00,0,28076880,190555
OK,32,60,829,32,2014-10-01T02:35:00,0,28077329,190555
OK,32,60,829,32,2014-10-01T02:40:00,0,28077735,190555
OK,32,60,829,32,2014-10-01T02:45:00,0,28078181,190555
OK,32,60,829,32,2014-10-01T02:50:00,0,28078626,190555
OK,32,60,829,32,2014-10-01T02:55:00,0,28079075,190555
OK,32,60,829,32,2014-10-01T03:00:00,0,28079517,190555
OK,32,60,829,32,2014-10-01T03:05:00,0,28079966,190555
OK,32,60,829,32,2014-10-01T03:10:00,0,28080304,190555
OK,32,60,829,32,2014-10-01T03:15:00,0,28080749,190555
OK,32,60,829,32,2014-10-01T03:20:00,0,28081198,190555
OK,32,60,829,32,2014-10-01T03:25:00,0,28081645,190555
OK,32,60,829,32,2014-10-01T03:30:00,0,28082094,190555
OK,32,60,829,32,2014-10-01T03:35:00,0,28082532,190555
OK,25,77,829,25,2014-10-01T03:40:00,1,28082960,190555
OK,76,25,829,76,2014-10-01T03:45:00,3,28083408,190555
OK,24,80,829,24,2014-10-01T03:55:00,1,28083857,190555
OK,23,83,829,23,2014-10-01T04:00:00,1,28084729,190555
OK,23,83,829,23,2014-10-01T04:05:00,1,28085172,190555
OK,29,66,829,29,2014-10-01T04:10:00,3,28085618,190555
OK,29,66,829,29,2014-10-01T04:15:00,0,28086066,190555
OK,30,64,829,30,2014-10-01T04:20:00,3,28086509,190555
OK,34,56,829,34,2014-10-01T04:25:00,2,28086957,190555
OK,25,77,829,25,2014-10-01T04:30:00,1,28087402,190555
OK,27,71,829,27,2014-10-01T04:35:00,2,28087851,190555
OK,28,68,829,28,2014-10-01T04:40:00,5,28088279,190555
OK,28,68,829,28,2014-10-01T04:45:00,8,28088724,190555
OK,28,68,829,28,2014-10-01T04:50:00,10,28089156,190555
OK,33,58,829,33,2014-10-01T04:55:00,8,28089603,190555
OK,46,41,829,46,2014-10-01T05:05:00,5,28090052,190555
OK,35,55,829,35,2014-10-01T05:10:00,5,28090845,190555
OK,34,56,829,34,2014-10-01T05:15:00,6,28091294,190555
OK,34,56,829,34,2014-10-01T05:20:00,5,28091714,190555
OK,47,40,829,47,2014-10-01T05:25:00,8,28092160,190555
OK,44,43,829,44,2014-10-01T05:30:00,16,28092605,190555
OK,41,46,829,41,2014-10-01T05:35:00,14,28093046,190555
OK,41,46,829,41,2014-10-01T05:40:00,12,28093476,190555
OK,45,42,829,45,2014-10-01T05:45:00,17,28093925,190555
OK,46,41,829,46,2014-10-01T05:50:00,16,28094340,190555
OK,45,42,829,45,2014-10-01T05:55:00,10,28094781,190555
OK,44,43,829,44,2014-10-01T06:00:00,8,28095228,190555
OK,43,44,829,43,2014-10-01T06:05:00,16,28095677,190555
OK,43,44,829,43,2014-10-01T06:10:00,12,28096093,190555
OK,42,45,829,42,2014-10-01T06:15:00,6,28096539,190555
OK,42,45,829,42,2014-10-01T06:20:00,8,28096976,190555
OK,45,42,829,45,2014-10-01T06:25:00,12,28097422,190555
OK,48,40,829,48,2014-10-01T06:30:00,10,28097871,190555
OK,31,62,829,31,2014-10-01T06:35:00,4,28098311,190555
OK,42,45,829,42,2014-10-01T06:40:00,1,28098753,190555
OK,40,48,829,40,2014-10-01T06:45:00,7,28099200,190555
OK,36,53,829,36,2014-10-01T06:50:00,7,28099547,190555
OK,47,40,829,47,2014-10-01T06:55:00,9,28099992,190555
OK,51,37,829,51,2014-10-01T07:00:00,7,28100303,190555
OK,44,43,829,44,2014-10-01T07:05:00,6,28100748,190555
OK,35,55,829,35,2014-10-01T07:10:00,16,28101122,190555
OK,34,56,829,34,2014-10-01T07:15:00,23,28101568,190555
OK,31,62,829,31,2014-10-01T07:20:00,20,28102005,190555
OK,34,56,829,34,2014-10-01T07:30:00,9,28102453,190555
OK,31,62,829,31,2014-10-01T07:35:00,11,28103327,190555
OK,29,66,829,29,2014-10-01T07:40:00,17,28103773,190555
OK,29,66,829,29,2014-10-01T07:45:00,15,28104217,190555
OK,33,58,829,33,2014-10-01T07:50:00,6,28104659,190555
OK,37,52,829,37,2014-10-01T07:55:00,11,28105103,190555
OK,36,53,829,36,2014-10-01T08:00:00,10,28105545,190555
OK,33,58,829,33,2014-10-01T08:05:00,9,28105992,190555
OK,29,66,829,29,2014-10-01T08:10:00,14,28106430,190555
OK,30,64,829,30,2014-10-01T08:15:00,12,28106838,190555
OK,33,58,829,33,2014-10-01T08:20:00,9,28107267,190555
OK,28,68,829,28,2014-10-01T08:25:00,8,28107716,190555
OK,33,58,829,33,2014-10-01T08:30:00,11,28108155,190555
OK,27,71,829,27,2014-10-01T08:35:00,9,28108604,190555
OK,28,68,829,28,2014-10-01T08:40:00,9,28109034,190555
OK,31,62,829,31,2014-10-01T08:45:00,8,28109481,190555
OK,44,43,829,44,2014-10-01T08:50:00,5,28109827,190555
OK,32,60,829,32,2014-10-01T08:55:00,12,28110273,190555
OK,33,58,829,33,2014-10-01T09:00:00,16,28110698,190555
OK,33,58,829,33,2014-10-01T09:05:00,14,28111145,190555
OK,34,56,829,34,2014-10-01T09:10:00,10,28111575,190555
OK,30,64,829,30,2014-10-01T09:15:00,6,28112023,190555
OK,30,64,829,30,2014-10-01T09:20:00,12,28112366,190555
OK,34,56,829,34,2014-10-01T09:25:00,5,28112813,190555
OK,31,62,829,31,2014-10-01T09:30:00,12,28113239,190555
OK,31,62,829,31,2014-10-01T09:35:00,22,28113686,190555
OK,31,62,829,31,2014-10-01T09:40:00,15,28114119,190555
OK,31,62,829,31,2014-10-01T09:45:00,1,28114567,190555
OK,37,52,829,37,2014-10-01T09:50:00,3,28114923,190555
OK,36,53,829,36,2014-10-01T09:55:00,14,28115370,190555
OK,34,56,829,34,2014-10-01T10:00:00,18,28115784,190555
OK,30,64,829,30,2014-10-01T10:05:00,13,28116231,190555
OK,30,64,829,30,2014-10-01T10:10:00,14,28116641,190555
OK,31,62,829,31,2014-10-01T10:15:00,14,28117088,190555
OK,33,58,829,33,2014-10-01T10:20:00,13,28117514,190555
OK,33,58,829,33,2014-10-01T10:25:00,22,28117962,190555
OK,33,58,829,33,2014-10-01T10:30:00,25,28118407,190555
OK,31,62,829,31,2014-10-01T10:35:00,21,28118854,190555
OK,30,64,829,30,2014-10-01T10:40:00,16,28119298,190555
OK,33,58,829,33,2014-10-01T10:45:00,21,28119746,190555
OK,35,55,829,35,2014-10-01T10:50:00,13,28120194,190555
OK,30,64,829,30,2014-10-01T10:55:00,13,28120643,190555
OK,27,71,829,27,2014-10-01T11:00:00,8,28121028,190555
OK,29,66,829,29,2014-10-01T11:05:00,13,28121475,190555
OK,29,66,829,29,2014-10-01T11:10:00,20,28121914,190555
OK,30,64,829,30,2014-10-01T11:15:00,24,28122362,190555
OK,30,64,829,30,2014-10-01T11:20:00,13,28122804,190555
OK,27,71,829,27,2014-10-01T11:25:00,7,28123252,190555
OK,29,66,829,29,2014-10-01T11:30:00,17,28123686,190555
OK,29,66,829,29,2014-10-01T11:35:00,22,28124133,190555
OK,32,60,829,32,2014-10-01T11:40:00,18,28124539,190555
OK,33,58,829,33,2014-10-01T11:45:00,12,28124984,190555
OK,34,56,829,34,2014-10-01T11:50:00,14,28125413,190555
OK,35,55,829,35,2014-10-01T11:55:00,21,28125862,190555
OK,35,55,829,35,2014-10-01T12:00:00,19,28126216,190555
OK,34,56,829,34,2014-10-01T12:05:00,18,28126663,190555
OK,36,53,829,36,2014-10-01T12:10:00,19,28127112,190555
OK,36,53,829,36,2014-10-01T12:15:00,17,28127561,190555
OK,35,55,829,35,2014-10-01T12:20:00,9,28127991,190555
OK,31,62,829,31,2014-10-01T12:25:00,11,28128438,190555
OK,32,60,829,32,2014-10-01T12:30:00,18,28128874,190555
OK,30,64,829,30,2014-10-01T12:35:00,19,28129322,190555
OK,33,58,829,33,2014-10-01T12:40:00,20,28129757,190555
OK,35,55,829,35,2014-10-01T12:45:00,21,28130205,190555
OK,32,60,829,32,2014-10-01T12:50:00,27,28130635,190555
OK,29,66,829,29,2014-10-01T12:55:00,25,28131082,190555
OK,31,62,829,31,2014-10-01T13:00:00,16,28131521,190555
OK,34,56,829,34,2014-10-01T13:05:00,24,28131968,190555
OK,34,56,829,34,2014-10-01T13:10:00,26,28132407,190555
OK,33,58,829,33,2014-10-01T13:15:00,23,28132853,190555
OK,33,58,829,33,2014-10-01T13:20:00,26,28133291,190555
OK,34,56,829,34,2014-10-01T13:25:00,28,28133740,190555
OK,35,55,829,35,2014-10-01T13:30:00,36,28134179,190555
OK,36,53,829,36,2014-10-01T13:35:00,53,28134628,190555
OK,42,45,829,42,2014-10-01T13:40:00,35,28135048,190555
OK,44,43,829,44,2014-10-01T13:45:00,27,28135496,190555
OK,43,44,829,43,2014-10-01T13:50:00,22,28135933,190555
OK,42,45,829,42,2014-10-01T13:55:00,27,28136382,190555
OK,41,46,829,41,2014-10-01T14:00:00,31,28136822,190555
OK,37,52,829,37,2014-10-01T14:05:00,27,28137271,190555
OK,40,48,829,40,2014-10-01T14:10:00,37,28137706,190555
OK,44,43,829,44,2014-10-01T14:15:00,37,28138154,190555
OK,44,43,829,44,2014-10-01T14:20:00,33,28138583,190555
OK,44,43,829,44,2014-10-01T14:25:00,34,28139031,190555
OK,42,45,829,42,2014-10-01T14:30:00,28,28139443,190555
OK,42,45,829,42,2014-10-01T14:35:00,24,28139891,190555
OK,44,43,829,44,2014-10-01T14:40:00,31,28140334,190555
OK,38,50,829,38,2014-10-01T14:45:00,26,28140782,190555
OK,40,48,829,40,2014-10-01T14:50:00,18,28141210,190555
OK,42,45,829,42,2014-10-01T14:55:00,23,28141657,190555
OK,43,44,829,43,2014-10-01T15:00:00,28,28142087,190555
OK,44,43,829,44,2014-10-01T15:05:00,25,28142534,190555
OK,42,45,829,42,2014-10-01T15:10:00,19,28142963,190555
OK,41,46,829,41,2014-10-01T15:15:00,17,28143410,190555
OK,36,53,829,36,2014-10-01T15:20:00,19,28143858,190555
OK,33,58,829,33,2014-10-01T15:25:00,29,28144307,190555
OK,31,62,829,31,2014-10-01T15:30:00,23,28144732,190555
OK,32,60,829,32,2014-10-01T15:35:00,17,28145142,190555
OK,43,44,829,43,2014-10-01T15:40:00,22,28145591,190555
OK,34,56,829,34,2014-10-01T15:45:00,21,28146040,190555
OK,38,50,829,38,2014-10-01T15:50:00,15,28146489,190555
OK,41,46,829,41,2014-10-01T15:55:00,16,28146902,190555
OK,46,41,829,46,2014-10-01T16:00:00,17,28147341,190555
OK,49,39,829,49,2014-10-01T16:05:00,16,28147790,190555
OK,50,38,829,50,2014-10-01T16:10:00,15,28148193,190555
OK,45,42,829,45,2014-10-01T16:15:00,9,28148640,190555
OK,38,50,829,38,2014-10-01T16:20:00,19,28149081,190555
OK,38,50,829,38,2014-10-01T16:25:00,13,28149528,190555
OK,35,55,829,35,2014-10-01T16:30:00,7,28149956,190555
OK,34,56,829,34,2014-10-01T16:35:00,13,28150403,190555
OK,36,53,829,36,2014-10-01T16:40:00,12,28150823,190555
OK,31,62,829,31,2014-10-01T16:45:00,14,28151270,190555
OK,32,60,829,32,2014-10-01T16:55:00,8,28151719,190555
OK,35,55,829,35,2014-10-01T17:00:00,14,28152168,190555
OK,33,58,829,33,2014-10-01T17:05:00,12,28152614,190555
OK,32,60,829,32,2014-10-01T17:10:00,8,28153061,190555
OK,29,66,829,29,2014-10-01T17:15:00,10,28153510,190555
OK,34,56,829,34,2014-10-01T17:20:00,11,28153923,190555
OK,37,52,829,37,2014-10-01T17:25:00,8,28154369,190555
OK,32,60,829,32,2014-10-01T17:30:00,11,28154811,190555
OK,32,60,829,32,2014-10-01T17:35:00,6,28155259,190555
OK,30,64,829,30,2014-10-01T17:40:00,6,28155680,190555
OK,29,66,829,29,2014-10-01T17:45:00,11,28156126,190555
OK,33,58,829,33,2014-10-01T17:50:00,8,28156575,190555
OK,36,53,829,36,2014-10-01T17:55:00,6,28157013,190555
OK,29,66,829,29,2014-10-01T18:00:00,8,28157445,190555
OK,28,68,829,28,2014-10-01T18:05:00,5,28157891,190555
OK,28,68,829,28,2014-10-01T18:10:00,1,28158335,190555
OK,32,60,829,32,2014-10-01T18:15:00,4,28158782,190555
OK,26,74,829,26,2014-10-01T18:20:00,9,28159227,190555
OK,27,71,829,27,2014-10-01T18:25:00,10,28159563,190555
OK,26,74,829,26,2014-10-01T18:30:00,8,28160011,190555
OK,23,83,829,23,2014-10-01T18:35:00,6,28160460,190555
OK,30,64,829,30,2014-10-01T18:40:00,9,28160899,190555
OK,29,66,829,29,2014-10-01T18:45:00,10,28161347,190555
OK,28,68,829,28,2014-10-01T18:50:00,2,28161765,190555
OK,32,60,829,32,2014-10-01T19:00:00,8,28162213,190555
OK,33,58,829,33,2014-10-01T19:05:00,7,28163047,190555
OK,31,62,829,31,2014-10-01T19:10:00,6,28163494,190555
OK,29,66,829,29,2014-10-01T19:15:00,7,28163943,190555
OK,30,64,829,30,2014-10-01T19:20:00,9,28164376,190555
OK,31,62,829,31,2014-10-01T19:25:00,15,28164823,190555
OK,32,60,829,32,2014-10-01T19:30:00,12,28165250,190555
OK,29,66,829,29,2014-10-01T19:35:00,12,28165696,190555
OK,28,68,829,28,2014-10-01T19:40:00,11,28166137,190555
OK,26,74,829,26,2014-10-01T19:45:00,8,28166499,190555
OK,28,68,829,28,2014-10-01T19:50:00,8,28166948,190555
OK,29,66,829,29,2014-10-01T19:55:00,6,28167377,190555
OK,31,62,829,31,2014-10-01T20:00:00,5,28167811,190555
OK,33,58,829,33,2014-10-01T20:05:00,11,28168259,190555
OK,35,55,829,35,2014-10-01T20:10:00,10,28168704,190555
OK,29,66,829,29,2014-10-01T20:15:00,6,28169153,190555
OK,31,62,829,31,2014-10-01T20:20:00,5,28169601,190555
OK,31,62,829,31,2014-10-01T20:25:00,5,28170027,190555
OK,29,66,829,29,2014-10-01T20:30:00,7,28170472,190555
OK,29,66,829,29,2014-10-01T20:35:00,7,28170920,190555
OK,29,66,829,29,2014-10-01T20:40:00,3,28171357,190555
OK,28,68,829,28,2014-10-01T20:45:00,0,28171803,190555
OK,61,31,829,61,2014-10-01T20:50:00,2,28172251,190555
OK,38,50,829,38,2014-10-01T20:55:00,3,28172697,190555
OK,29,66,829,29,2014-10-01T21:00:00,3,28173143,190555
OK,31,62,829,31,2014-10-01T21:05:00,4,28173592,190555
OK,33,58,829,33,2014-10-01T21:10:00,5,28174033,190555
OK,45,42,829,45,2014-10-01T21:15:00,4,28174482,190555
OK,51,37,829,51,2014-10-01T21:20:00,2,28174908,190555
OK,44,43,829,44,2014-10-01T21:25:00,3,28175304,190555
OK,43,44,829,43,2014-10-01T21:30:00,2,28175753,190555
OK,43,44,829,43,2014-10-01T21:35:00,0,28176202,190555
OK,43,44,829,43,2014-10-01T21:40:00,0,28176651,190555
OK,43,44,829,43,2014-10-01T21:45:00,0,28177016,190555
OK,43,44,829,43,2014-10-01T21:50:00,0,28177447,190555
OK,29,66,829,29,2014-10-01T21:55:00,1,28177893,190555
OK,29,66,829,29,2014-10-01T22:00:00,0,28178342,190555
OK,29,66,829,29,2014-10-01T22:05:00,0,28178789,190555
OK,29,66,829,29,2014-10-01T22:10:00,0,28179225,190555
OK,29,66,829,29,2014-10-01T22:15:00,0,28179666,190555
OK,35,55,829,35,2014-10-01T22:20:00,2,28180113,190555
OK,35,55,829,35,2014-10-01T22:25:00,2,28180512,190555
OK,35,55,829,35,2014-10-01T22:30:00,0,28180960,190555
OK,35,55,829,35,2014-10-01T22:35:00,0,28181384,190555
OK,25,77,829,25,2014-10-01T22:40:00,1,28181832,190555
OK,25,77,829,25,2014-10-01T22:45:00,0,28182279,190555
OK,25,77,829,25,2014-10-01T22:50:00,0,28182728,190555
OK,25,77,829,25,2014-10-01T22:55:00,0,28183145,190555
OK,25,77,829,25,2014-10-01T23:00:00,0,28183578,190555
OK,25,77,829,25,2014-10-01T23:05:00,0,28184023,190555
OK,36,53,829,36,2014-10-01T23:10:00,2,28184472,190555
OK,36,53,829,36,2014-10-01T23:15:00,2,28184907,190555
OK,36,53,829,36,2014-10-01T23:20:00,0,28185355,190555
OK,33,58,829,33,2014-10-01T23:25:00,1,28185786,190555
OK,33,58,829,33,2014-10-01T23:30:00,1,28186178,190555
OK,33,58,829,33,2014-10-01T23:40:00,0,28187025,190555
OK,33,58,829,33,2014-10-01T23:45:00,0,28187467,190555
OK,33,58,829,33,2014-10-01T23:50:00,0,28187916,190555
OK,25,77,829,25,2014-10-01T23:55:00,1,28188357,190555
OK,25,77,829,25,2014-10-02T00:00:00,1,28188793,190555
OK,25,77,829,25,2014-10-02T00:05:00,0,28189242,190555
OK,25,77,829,25,2014-10-02T00:10:00,0,28189666,190555
OK,25,77,829,25,2014-10-02T00:15:00,0,28190113,190555
OK,25,77,829,25,2014-10-02T00:20:00,0,28190468,190555
OK,25,77,829,25,2014-10-02T00:25:00,0,28190915,190555
OK,25,77,829,25,2014-10-02T00:30:00,0,28191364,190555
OK,25,77,829,25,2014-10-02T00:35:00,1,28191672,190555
OK,25,77,829,25,2014-10-02T00:40:00,0,28192119,190555
OK,25,77,829,25,2014-10-02T00:45:00,0,28192553,190555
OK,25,77,829,25,2014-10-02T00:50:00,0,28192996,190555
OK,25,77,829,25,2014-10-02T00:55:00,0,28193363,190555
OK,25,77,829,25,2014-10-02T01:05:00,0,28194261,190555
OK,25,77,829,25,2014-10-02T01:15:00,0,28194710,190555
OK,29,66,829,29,2014-10-02T01:20:00,1,28195395,190555
OK,22,87,829,22,2014-10-02T01:30:00,1,28195844,190555
OK,22,87,829,22,2014-10-02T01:35:00,0,28196577,190555
OK,22,87,829,22,2014-10-02T01:40:00,0,28197002,190555
OK,58,33,829,58,2014-10-02T01:45:00,0,28197449,190555
OK,58,33,829,58,2014-10-02T01:50:00,0,28197897,190555
OK,58,33,829,58,2014-10-02T01:55:00,0,28198345,190555
OK,58,33,829,58,2014-10-02T02:05:00,0,28198794,190555
OK,58,33,829,58,2014-10-02T02:10:00,0,28199608,190555
OK,35,55,829,35,2014-10-02T02:15:00,2,28200050,190555
OK,35,55,829,35,2014-10-02T02:20:00,2,28200493,190555
OK,35,55,829,35,2014-10-02T02:25:00,0,28200942,190555
OK,21,91,829,21,2014-10-02T02:30:00,2,28201373,190555
OK,21,91,829,21,2014-10-02T02:45:00,0,28202271,190555
OK,29,66,829,29,2014-10-02T02:50:00,2,28202713,190555
OK,29,66,829,29,2014-10-02T02:55:00,2,28203161,190555
OK,38,50,829,38,2014-10-02T03:00:00,1,28203596,190555
OK,38,50,829,38,2014-10-02T03:10:00,0,28204045,190555
OK,44,43,829,44,2014-10-02T03:25:00,0,28204494,190555
OK,44,43,829,44,2014-10-02T03:30:00,0,28204943,190555
OK,41,46,829,41,2014-10-02T03:35:00,2,28205373,190555
OK,29,66,829,29,2014-10-02T03:40:00,1,28205818,190555
OK,57,33,829,57,2014-10-02T03:45:00,2,28206201,190555
OK,57,33,829,57,2014-10-02T03:55:00,0,28207099,190555
OK,57,33,829,57,2014-10-02T04:00:00,0,28207521,190555
OK,57,33,829,57,2014-10-02T04:05:00,0,28207967,190555
OK,31,62,829,31,2014-10-02T04:10:00,2,28208397,190555
OK,35,55,829,35,2014-10-02T04:15:00,0,28208843,190555
OK,33,58,829,33,2014-10-02T04:20:00,2,28209282,190555
OK,24,80,829,24,2014-10-02T04:25:00,1,28209730,190555
OK,49,39,829,49,2014-10-02T04:30:00,3,28210154,190555
OK,49,39,829,49,2014-10-02T04:35:00,0,28210602,190555
OK,32,60,829,32,2014-10-02T04:40:00,6,28211030,190555
OK,45,42,829,45,2014-10-02T04:45:00,1,28211471,190555
OK,45,42,829,45,2014-10-02T04:50:00,0,28211849,190555
OK,28,68,829,28,2014-10-02T04:55:00,3,28212298,190555
OK,39,49,829,39,2014-10-02T05:00:00,0,28212727,190555
OK,41,46,829,41,2014-10-02T05:05:00,6,28213176,190555
OK,49,39,829,49,2014-10-02T05:10:00,0,28213615,190555
OK,47,40,829,47,2014-10-02T05:15:00,5,28214063,190555
OK,39,49,829,39,2014-10-02T05:20:00,0,28214479,190555
OK,33,58,829,33,2014-10-02T05:25:00,11,28214925,190555
OK,38,50,829,38,2014-10-02T05:30:00,0,28215344,190555
OK,37,52,829,37,2014-10-02T05:40:00,10,28215790,190555
OK,37,52,829,37,2014-10-02T05:45:00,6,28216569,190555
OK,36,53,829,36,2014-10-02T05:50:00,0,28217016,190555
OK,36,53,829,36,2014-10-02T05:55:00,7,28217465,190555
OK,42,45,829,42,2014-10-02T06:00:00,12,28217904,190555
OK,36,53,829,36,2014-10-02T06:05:00,7,28218353,190555
OK,35,55,829,35,2014-10-02T06:10:00,2,28218775,190555
OK,41,46,829,41,2014-10-02T06:15:00,16,28219222,190555
OK,45,42,829,45,2014-10-02T06:20:00,8,28219597,190555
OK,35,55,829,35,2014-10-02T06:25:00,7,28220044,190555
OK,49,39,829,49,2014-10-02T06:30:00,9,28220480,190555
OK,40,48,829,40,2014-10-02T06:40:00,13,28220927,190555
OK,42,45,829,42,2014-10-02T06:45:00,15,28221594,190555
OK,42,45,829,42,2014-10-02T07:00:00,11,28222188,190555
OK,46,41,829,46,2014-10-02T07:05:00,13,28222637,190555
OK,37,52,829,37,2014-10-02T07:10:00,11,28223070,190555
OK,36,53,829,36,2014-10-02T07:15:00,1,28223504,190555
OK,36,53,829,36,2014-10-02T07:20:00,0,28223951,190555
OK,30,64,829,30,2014-10-02T07:25:00,8,28224306,190555
OK,28,68,829,28,2014-10-02T07:30:00,4,28224755,190555
OK,31,62,829,31,2014-10-02T07:35:00,11,28225204,190555
OK,31,62,829,31,2014-10-02T07:40:00,7,28225530,190555
OK,32,60,829,32,2014-10-02T07:50:00,12,28226416,190555
OK,33,58,829,33,2014-10-02T07:55:00,9,28226865,190555
OK,35,55,829,35,2014-10-02T08:00:00,4,28227283,190555
OK,28,68,829,28,2014-10-02T08:05:00,6,28227729,190555
OK,24,80,829,24,2014-10-02T08:10:00,1,28228090,190555
OK,28,68,829,28,2014-10-02T08:15:00,10,28228537,190555
OK,26,74,829,26,2014-10-02T08:20:00,4,28228949,190555
OK,29,66,829,29,2014-10-02T08:25:00,11,28229396,190555
OK,37,52,829,37,2014-10-02T08:30:00,0,28229749,190555
OK,24,80,829,24,2014-10-02T08:40:00,0,28230195,190555
OK,24,80,829,24,2014-10-02T08:45:00,0,28231010,190555
OK,32,60,829,32,2014-10-02T08:50:00,7,28231434,190555
OK,25,77,829,25,2014-10-02T08:55:00,2,28231882,190555
OK,30,64,829,30,2014-10-02T09:00:00,14,28232226,190555
OK,37,52,829,37,2014-10-02T09:10:00,0,28232673,190555
OK,28,68,829,28,2014-10-02T09:15:00,13,28233122,190555
OK,28,68,829,28,2014-10-02T09:20:00,1,28233547,190555
OK,32,60,829,32,2014-10-02T09:25:00,11,28233995,190555
OK,32,60,829,32,2014-10-02T09:30:00,4,28234330,190555
OK,30,64,829,30,2014-10-02T09:35:00,9,28234777,190555
OK,30,64,829,30,2014-10-02T09:40:00,0,28235204,190555
OK,42,45,829,42,2014-10-02T09:45:00,4,28235653,190555
OK,46,41,829,46,2014-10-02T09:50:00,3,28236097,190555
OK,34,56,829,34,2014-10-02T09:55:00,11,28236543,190555
OK,33,58,829,33,2014-10-02T10:00:00,4,28236948,190555
OK,31,62,829,31,2014-10-02T10:05:00,0,28237394,190555
OK,32,60,829,32,2014-10-02T10:10:00,15,28237842,190555
OK,32,60,829,32,2014-10-02T10:15:00,19,28238290,190555
OK,35,55,829,35,2014-10-02T10:20:00,21,28238731,190555
OK,37,52,829,37,2014-10-02T10:25:00,7,28239179,190555
OK,42,45,829,42,2014-10-02T10:30:00,0,28239610,190555
OK,29,66,829,29,2014-10-02T10:35:00,9,28240058,190555
OK,36,53,829,36,2014-10-02T10:40:00,10,28240503,190555
OK,38,50,829,38,2014-10-02T10:45:00,17,28240951,190555
OK,42,45,829,42,2014-10-02T10:50:00,6,28241384,190555
OK,32,60,829,32,2014-10-02T10:55:00,18,28241831,190555
OK,30,64,829,30,2014-10-02T11:00:00,7,28242229,190555
OK,36,53,829,36,2014-10-02T11:05:00,0,28242676,190555
OK,38,50,829,38,2014-10-02T11:15:00,12,28243125,190555
OK,38,50,829,38,2014-10-02T11:20:00,13,28243889,190555
OK,38,50,829,38,2014-10-02T11:25:00,5,28244318,190555
OK,47,40,829,47,2014-10-02T11:30:00,0,28244766,190555
OK,28,68,829,28,2014-10-02T11:35:00,15,28245215,190555
OK,28,68,829,28,2014-10-02T11:40:00,5,28245623,190555
OK,25,77,829,25,2014-10-02T11:45:00,0,28246070,190555
OK,34,56,829,34,2014-10-02T11:50:00,24,28246507,190555
OK,33,58,829,33,2014-10-02T11:55:00,24,28246956,190555
OK,35,55,829,35,2014-10-02T12:00:00,21,28247402,190555
OK,35,55,829,35,2014-10-02T12:05:00,11,28247834,190555
OK,35,55,829,35,2014-10-02T12:10:00,0,28248281,190555
OK,29,66,829,29,2014-10-02T12:15:00,14,28248729,190555
OK,31,62,829,31,2014-10-02T12:20:00,4,28249157,190555
OK,31,62,829,31,2014-10-02T12:25:00,17,28249600,190555
OK,31,62,829,31,2014-10-02T12:30:00,7,28250019,190555
OK,33,58,829,33,2014-10-02T12:35:00,20,28250417,190555
OK,32,60,829,32,2014-10-02T12:45:00,31,28251197,190555
OK,33,58,829,33,2014-10-02T13:20:00,21,28251742,190555
OK,35,55,829,35,2014-10-02T13:30:00,19,28252326,190555
OK,34,56,829,34,2014-10-02T13:35:00,11,28252768,190555
OK,25,77,829,25,2014-10-02T13:40:00,0,28253185,190555
OK,45,42,829,45,2014-10-02T13:45:00,35,28253634,190555
OK,43,44,829,43,2014-10-02T13:50:00,23,28254040,190555
OK,37,52,829,37,2014-10-02T13:55:00,30,28254360,190555
OK,43,44,829,43,2014-10-02T14:10:00,22,28254937,190555
OK,41,46,829,41,2014-10-02T14:15:00,42,28255386,190555
OK,39,49,829,39,2014-10-02T14:20:00,29,28255814,190555
OK,42,45,829,42,2014-10-02T14:25:00,6,28256263,190555
OK,42,45,829,42,2014-10-02T14:30:00,29,28256691,190555
OK,42,45,829,42,2014-10-02T14:35:00,23,28257140,190555
OK,37,52,829,37,2014-10-02T14:40:00,15,28257581,190555
OK,37,52,829,37,2014-10-02T14:45:00,25,28258029,190555
OK,40,48,829,40,2014-10-02T14:50:00,27,28258462,190555
OK,43,44,829,43,2014-10-02T14:55:00,22,28258908,190555
OK,39,49,829,39,2014-10-02T15:00:00,23,28259357,190555
OK,37,52,829,37,2014-10-02T15:05:00,14,28259804,190555
OK,37,52,829,37,2014-10-02T15:10:00,11,28260237,190555
OK,43,44,829,43,2014-10-02T15:15:00,20,28260686,190555
OK,46,41,829,46,2014-10-02T15:20:00,10,28261126,190555
OK,38,50,829,38,2014-10-02T15:25:00,31,28261508,190555
OK,37,52,829,37,2014-10-02T15:30:00,16,28261938,190555
OK,40,48,829,40,2014-10-02T15:35:00,20,28262385,190555
OK,42,45,829,42,2014-10-02T15:40:00,14,28262831,190555
OK,39,49,829,39,2014-10-02T15:45:00,24,28263269,190555
OK,40,48,829,40,2014-10-02T15:50:00,11,28263710,190555
OK,36,53,829,36,2014-10-02T15:55:00,0,28264112,190555
OK,36,53,829,36,2014-10-02T16:00:00,0,28264561,190555
OK,45,42,829,45,2014-10-02T16:05:00,12,28264999,190555
OK,41,46,829,41,2014-10-02T16:10:00,14,28265439,190555
OK,37,52,829,37,2014-10-02T16:15:00,9,28265835,190555
OK,37,52,829,37,2014-10-02T16:20:00,11,28266284,190555
OK,26,74,829,26,2014-10-02T16:25:00,8,28266733,190555
OK,27,71,829,27,2014-10-02T16:30:00,6,28267056,190555
OK,24,80,829,24,2014-10-02T16:35:00,3,28267505,190555